Location: Bay Harbour
(38.2612°N, 75.2555°W)
Time: 02:16:27
(UTC+00:00)

SKYMED 2 - Pass Details

Date: 29 October 2020
Orbit: 621 x 623 km, 97.9° (Epoch: 02 December)

Event Time Altitude Azimuth Distance (km) Brightness Sun altitude
Rises 22:43:30 0° 18° (NNE) 2,909 6.7 -8.3°
Reaches altitude 10° 22:45:46 10° 24° (NNE) 1,998 5.8 -8.7°
Maximum altitude 22:49:59 50° 99° (E) 799 3.8 -9.5°
Drops below altitude 10° 22:54:11 10° 175° (S) 1,982 6.2 -10.4°
Sets 22:56:24 0° 181° (S) 2,884 7.1 -10.8°
